Regional Weather Roundup
Issued by NWS

Home | Current Version | Previous Version | Text Only | Print | Product List | Glossary Off
Versions: 1 2 3 4 5 6 7 8 9 10 11 12 13 14 15 16 17 18 19 20 21 22 23 24 25 26 27 28 29 30 31 32 33 34 35 36 37 38 39 40 41 42 43 44 45 46 47 48 49 50

000
ASUS43 KOAX 180202
RWRNE

WEATHER ROUNDUP FOR NEBRASKA
NATIONAL WEATHER SERVICE OMAHA NE
800 PM CST SAT FEB 17 2018

NOTES: SATELLITE DATA IS BEING USED TO AUGMENT CLOUD COVER ABOVE
       12000 FEET.
       "FAIR" INDICATES FEW OR NO CLOUDS BELOW 12,000 FEET WITH NO
       SIGNIFICANT WEATHER AND/OR OBSTRUCTIONS TO VISIBILITY.


NEZ001>004-019>022-054>056-180300-
NEBRASKA PANHANDLE

CITY           SKY/WX    TMP DP  RH WIND       PRES   REMARKS
SCOTTSBLUFF    PTCLDY    39  17  41 SE12      29.82F WCI  32
ALLIANCE       PTCLDY    38  19  46 S18       29.81F WCI  28
CHADRON        CLOUDY    29  22  75 W7        29.76F WCI  22
GORDON         FAIR      31  23  72 SE7       29.80F WCI  24
KIMBALL        CLEAR     36  15  42 S10       29.86F WCI  28
SIDNEY         CLEAR     35  15  44 S13       29.88F WCI  26
$$

NEZ057>060-069>072-079>082-180300-
SOUTHWEST NEBRASKA

CITY           SKY/WX    TMP DP  RH WIND       PRES   REMARKS
NORTH PLATTE   CLEAR     36  23  59 SE12      29.97F WCI  28
IMPERIAL       CLEAR     36  23  59 SE13      29.96F WCI  27
LEXINGTON      CLEAR     37  26  64 SE7       30.03F WCI  31
MCCOOK         CLEAR     40  20  44 S13       30.01F WCI  32
OGALLALA       CLEAR     39  24  55 SE8       29.92F WCI  33
$$

NEZ005>010-023>029-035>040-094-180300-
NORTH CENTRAL NEBRASKA

CITY           SKY/WX    TMP DP  RH WIND       PRES   REMARKS
VALENTINE      PTCLDY    33  23  66 SE9       29.91F WCI  25
AINSWORTH      CLEAR     30  26  83 SE9       29.93F WCI  22
BROKEN BOW     CLEAR     33  23  66 SE7       30.00F WCI  27
O`NEILL        CLEAR     28  24  86 E8        30.01F WCI  20
ORD            CLEAR     34  24  67 SE9       30.03S WCI  27
THEDFORD       CLEAR     34  23  63 SE13      29.93F WCI  25
$$

NEZ041-046>049-061>064-073>077-083>087-180300-
SOUTH CENTRAL NEBRASKA

CITY           SKY/WX    TMP DP  RH WIND       PRES   REMARKS
GRAND ISLAND   CLEAR     32  24  72 SE7       30.09S WCI  26
AURORA         CLEAR     32  23  69 SE7       30.09S WCI  26
HASTINGS       CLEAR     36  23  59 E6        30.09R WCI  31
HEBRON         CLEAR     33  22  63 CALM      30.12S
HOLDREGE       CLEAR     31  23  73 SE8       30.05F WCI  23
KEARNEY        CLEAR     31  25  78 SE8       30.06F WCI  23
YORK           CLEAR     36  25  64 SE6       30.10F WCI  31
$$

NEZ011>018-030>034-042>045-180300-
NORTHEAST NEBRASKA

CITY           SKY/WX    TMP DP  RH WIND       PRES   REMARKS
NORFOLK        CLEAR     28  24  85 SE8       30.07F WCI  20
ALBION         CLEAR     32  26  78 SE3       30.07F
BLAIR          CLEAR     32  27  79 NE5       30.12F WCI  28
COLUMBUS       CLEAR     28  26  92 E5        30.11F WCI  23
FREMONT        CLEAR     32  28  84 CALM      30.14S
TEKAMAH        CLEAR     30  28  92 E3        30.14S
WAYNE          CLEAR     26  25  96 CALM      30.10S
$$

NEZ050>053-065>068-078-088>093-180300-
SOUTHEAST NEBRASKA

CITY           SKY/WX    TMP DP  RH WIND       PRES   REMARKS
LINCOLN        CLEAR     30  22  72 CALM      30.14F
OMAHA EPPLEY   CLEAR     32  25  75 CALM      30.15S
BEATRICE       CLEAR     36  24  62 E3        30.14R
FALLS CITY     CLEAR     38  20  48 N3        30.15S
NEBRASKA CITY  CLEAR     37  23  57 CALM      30.15S
PLATTSMOUTH    CLEAR     35  27  71 NE5       30.15S WCI  31
$$

NEZ044-045-051>053-067-180300-
OMAHA AREA

CITY           SKY/WX    TMP DP  RH WIND       PRES   REMARKS
OMAHA EPPLEY   CLEAR     32  25  75 CALM      30.15S
BLAIR          CLEAR     32  27  79 NE5       30.12F WCI  28
FREMONT        CLEAR     32  28  84 CALM      30.14S
MILLARD        CLEAR     33  27  79 CALM      30.15S
OFFUTT AFB     CLEAR     29  24  80 CALM      30.14S
PLATTSMOUTH    CLEAR     35  27  71 NE5       30.15S WCI  31
WAHOO          FAIR      32  27  81 E6        30.13S WCI  27
$$




USA.gov is the U.S. government's official web portal to all federal, state and local government web resources and services.